Weather History for LEVD - March, 2013

Change the Weather History Date:

Saturday, March 2, 2013

  Actual Average Record
Temperature  
Mean Temperature 38 °F -  
Max Temperature 48 °F - - ()
Min Temperature 28 °F - - ()
Degree Days  
Heating Degree Days 27    
Moisture  
Dew Point 31 °F    
Average Humidity 72    
Maximum Humidity 100    
Minimum Humidity 50    
Precipitation  
Precipitation 0.00 in - - ()
Sea Level Pressure  
Sea Level Pressure 30.00 in    
Wind  
Wind Speed 5 mph ()    
Max Wind Speed 10 mph    
Max Gust Speed -    
Visibility 4.1 miles    
Events      
T = Trace of Precipitation, MM = Missing Value Source: Averaged Metar Reports

Daily Weather History Graph

Daily Weather History Graph

Search for Another Location

Airport or City:

Trip Planner

Search our weather history database for the weather conditions in past years. The results will help you decide how hot, cold, wet, or windy it might be!

Date:

Astronomy

Mar. 02, 2013 Rise Set
Actual Time 7:52 AM CET 7:11 PM CET
Civil Twilight 7:24 AM CET 7:38 PM CET
Nautical Twilight 6:52 AM CET 8:11 PM CET
Astronomical Twilight 6:20 AM CET 8:43 PM CET
Moon No Moon Rise 10:05 AM CET (3/2)
Length of Visible Light 12h 14m
Length of Day
11h 18m
Waning Gibbous, 76% of the Moon is Illuminated
Mar 2
Waning Gibbous
Mar 4
Last Quarter
Mar 11
New
Mar 19
First Quarter
Mar 27
Full

Hourly Weather History & Observations

Time (CET) Temp. Windchill Dew Point Humidity Pressure Visibility Wind Dir Wind Speed Gust Speed Precip Events Conditions
7:30 AM 28.4 °F 24.6 °F 28.4 °F 100% 30.04 in 3.1 mi East 3.5 mph - N/A   Mist
8:00 AM 28.4 °F 24.6 °F 26.6 °F 93% 30.04 in 3.1 mi ESE 3.5 mph - N/A   Mist
8:30 AM 28.4 °F 23.3 °F 28.4 °F 100% 30.04 in 4.3 mi East 4.6 mph - N/A   Unknown
9:00 AM 32.0 °F 26.4 °F 30.2 °F 93% 30.04 in 4.3 mi East 5.8 mph - N/A   Unknown
9:30 AM 32.0 °F 24.2 °F 32.0 °F 100% 30.04 in 4.3 mi East 9.2 mph - N/A   Unknown
10:00 AM 33.8 °F 25.8 °F 32.0 °F 93% 30.04 in 4.3 mi East 10.4 mph - N/A   Unknown
10:30 AM 35.6 °F 28.0 °F 32.0 °F 87% 30.04 in 5.6 mi East 10.4 mph - N/A   Unknown
11:00 AM 37.4 °F 30.3 °F 32.0 °F 81% 30.04 in - East 10.4 mph - N/A   Clear
11:30 AM 37.4 °F 30.3 °F 33.8 °F 87% 30.04 in - East 10.4 mph - N/A   Clear
12:00 PM 39.2 °F 33.0 °F 33.8 °F 81% 30.04 in - East 9.2 mph - N/A   Clear
12:30 PM 42.8 °F 37.5 °F 33.8 °F 70% 30.04 in - ESE 9.2 mph - N/A   Clear
1:00 PM 42.8 °F 39.3 °F 33.8 °F 70% 30.04 in - ESE 5.8 mph - N/A   Clear
1:30 PM 44.6 °F 40.7 °F 33.8 °F 66% 30.01 in - ESE 6.9 mph - N/A   Clear
2:00 PM 46.4 °F 42.9 °F 32.0 °F 57% 30.01 in - SSE 6.9 mph - N/A   Clear
2:30 PM 46.4 °F 43.5 °F 30.2 °F 53% 30.01 in - SE 5.8 mph - N/A   Clear
3:00 PM 46.4 °F 44.3 °F 30.2 °F 53% 29.98 in - ESE 4.6 mph - N/A   Clear
3:30 PM 46.4 °F - 30.2 °F 53% 29.98 in - Variable 2.3 mph - N/A   Clear
4:00 PM 48.2 °F - 32.0 °F 54% 29.98 in - East 4.6 mph - N/A   Clear
4:30 PM 48.2 °F - 30.2 °F 50% 29.95 in - Variable 3.5 mph - N/A   Clear
5:00 PM 48.2 °F - 32.0 °F 54% 29.95 in - East 4.6 mph - N/A   Clear
5:30 PM 48.2 °F - 30.2 °F 50% 29.95 in - East 3.5 mph - N/A   Clear
6:00 PM 48.2 °F - 30.2 °F 50% 29.95 in - Variable 1.2 mph - N/A   Clear
6:30 PM 46.4 °F - 32.0 °F 57% 29.95 in - Variable 1.2 mph - N/A   Clear
7:00 PM 44.6 °F - 32.0 °F 61% 29.95 in - East 1.2 mph - N/A   Clear
7:30 PM 42.8 °F - 32.0 °F 66% 29.95 in - NNE 2.3 mph - N/A   Clear
8:00 PM 41.0 °F - 32.0 °F 70% 29.98 in - NNE 2.3 mph - N/A   Clear
8:30 PM 39.2 °F 37.0 °F 32.0 °F 75% 29.98 in - NE 3.5 mph - N/A   Clear
9:00 PM 37.4 °F 34.9 °F 30.2 °F 75% 29.98 in - NE 3.5 mph - N/A   Clear
9:30 PM 35.6 °F 32.8 °F 30.2 °F 81% 29.98 in - NE 3.5 mph - N/A   Clear